Location: Tauranga
(37.6860°S, 176.1670°E)
Time: 23:49:52
(UTC+13:00)

Meteor 1-26 Rocket - Pass Details

Date: 24 January 2019
Orbit: 823 x 912 km, 81.3° (Epoch: 20 February)

Event Time Altitude Azimuth Distance (km) Brightness Sun altitude
Exits shadow 22:56:00 44° 5° (N) 1,212 4.6 -22.9°
Maximum altitude 22:57:57 79° 83° (E) 909 4.2 -23.1°
Drops below altitude 10° 23:03:44 10° 168° (SSE) 2,536 7.2 -23.8°
Sets 23:06:09 0° 169° (S) 3,467 8.0 -24.1°
